Location: 22
(39.7117°N, 89.5929°W)
Time: 10:00:01
(UTC-05:00)

S-56A Canister/Altair - Pass Details

Date: 14 February 2023
Orbit: 638 x 2493 km, 38.9° (Epoch: 25 March)

Event Time Altitude Azimuth Distance (km) Brightness Sun altitude
Rises 13:52:37 0° 267° (W) 3,047 11.0 32.5°
Reaches altitude 10° 13:56:09 10° 238° (WSW) 2,304 11.1 32.1°
Maximum altitude 13:58:28 13° 211° (SSW) 2,253 11.6 31.9°
Drops below altitude 10° 14:01:04 10° 186° (S) 2,641 11.4 31.7°
Sets 14:05:49 0° 160° (SSE) 3,987 11.7 31.2°
